Location: B?jaj?g
(11.7167°N, 92.6667°E)
Time: 13:46:27
(UTC+00:00)

Okean O Rocket - Pass Details

Date: 18 September 2020
Orbit: 622 x 645 km, 98.2° (Epoch: 25 October)

Event Time Altitude Azimuth Distance (km) Brightness Sun altitude
Rises 12:05:49 0° 188° (S) 2,935 5.1 -5.2°
Reaches altitude 10° 12:08:15 10° 200° (SSW) 2,030 4.4 -5.8°
Maximum altitude 12:12:04 29° 259° (W) 1,186 4.0 -6.7°
Drops below altitude 10° 12:15:54 10° 320° (NW) 2,036 4.9 -7.7°
Sets 12:18:21 0° 331° (NNW) 2,946 5.5 -8.3°
